Hourly Weather Kozyna

Today, 20 October, Tuesday

Time Temperature Precipitation Wind Pressure Humidity
00:00 +4°C° 0 mm 3 mps 740 mmHg 84%
01:00 +4°C° 0 mm 3 mps 741 mmHg 84%
02:00 +3°C° 0 mm 3 mps 741 mmHg 84%
03:00 +3°C° 0 mm 3 mps 741 mmHg 83%
04:00 +3°C° 0 mm 3 mps 741 mmHg 83%
05:00 +4°C° 0 mm 2 mps 741 mmHg 82%
06:00 +4°C° 0 mm 2 mps 741 mmHg 81%
07:00 +5°C° 0 mm 2 mps 741 mmHg 79%
08:00 +5°C° 0 mm 2 mps 742 mmHg 78%
09:00 +7°C° 0 mm 2 mps 742 mmHg 73%
10:00 +8°C° 0 mm 2 mps 742 mmHg 67%
11:00 +10°C° 0 mm 3 mps 742 mmHg 62%
12:00 +10°C° 0 mm 2 mps 742 mmHg 59%
13:00 +12°C° 0 mm 2 mps 742 mmHg 57%
14:00 +12°C° 0 mm 2 mps 742 mmHg 54%
15:00 +10°C° 0 mm 2 mps 742 mmHg 58%
16:00 +11°C° 0 mm 1 mps 741 mmHg 61%
17:00 +10°C° 0 mm 1 mps 741 mmHg 65%
18:00 +9°C° 0 mm 1 mps 741 mmHg 66%
19:00 +7°C° 0 mm 2 mps 741 mmHg 68%
20:00 +7°C° 0 mm 2 mps 741 mmHg 69%
21:00 +5°C° 0 mm 3 mps 741 mmHg 70%
22:00 +5°C° 0 mm 3 mps 741 mmHg 71%
23:00 +5°C° 0 mm 3 mps 740 mmHg 72%

Tomorrow, 21 October, Wednesday

Time Temperature Precipitation Wind Pressure Humidity
00:00 +5°C° 0 mm 3 mps 740 mmHg 73%
01:00 +5°C° 0 mm 3 mps 740 mmHg 74%
02:00 +5°C° 0 mm 4 mps 740 mmHg 75%
03:00 +4°C° 0 mm 3 mps 739 mmHg 77%
04:00 +4°C° 0 mm 3 mps 739 mmHg 78%
05:00 +4°C° 0 mm 3 mps 738 mmHg 79%
06:00 +4°C° 0 mm 3 mps 738 mmHg 79%
07:00 +4°C° 0 mm 3 mps 738 mmHg 79%
08:00 +4°C° 0 mm 3 mps 738 mmHg 79%
09:00 +7°C° 0 mm 2 mps 738 mmHg 73%
10:00 +8°C° 0 mm 2 mps 738 mmHg 67%
11:00 +9°C° 0 mm 2 mps 738 mmHg 61%
12:00 +10°C° 0 mm 2 mps 737 mmHg 58%
13:00 +12°C° 0 mm 2 mps 737 mmHg 55%
14:00 +13°C° 0 mm 2 mps 737 mmHg 51%
15:00 +12°C° 0 mm 1 mps 737 mmHg 55%
16:00 +11°C° 0 mm 1 mps 736 mmHg 59%
17:00 +11°C° 0 mm 1 mps 736 mmHg 63%
18:00 +10°C° 0 mm 1 mps 736 mmHg 63%
19:00 +10°C° 0 mm 1 mps 736 mmHg 64%
20:00 +9°C° 0 mm 1 mps 736 mmHg 64%
21:00 +9°C° 0 mm 1 mps 736 mmHg 63%
22:00 +9°C° 0 mm 1 mps 737 mmHg 61%
23:00 +8°C° 0 mm 1 mps 737 mmHg 60%

Day after tomorrow, 22 October, Thursday

Time Temperature Precipitation Wind Pressure Humidity
00:00 +8°C° 0 mm 1 mps 737 mmHg 59%
01:00 +8°C° 0 mm 1 mps 737 mmHg 59%
02:00 +8°C° 0 mm 1 mps 737 mmHg 59%
03:00 +8°C° 0 mm 1 mps 737 mmHg 59%
04:00 +8°C° 0 mm 1 mps 737 mmHg 59%
05:00 +8°C° 0 mm 1 mps 737 mmHg 60%
06:00 +7°C° 0 mm 2 mps 737 mmHg 60%
07:00 +8°C° 0 mm 2 mps 737 mmHg 61%
08:00 +8°C° 0 mm 2 mps 737 mmHg 61%
09:00 +10°C° 0 mm 2 mps 737 mmHg 57%
10:00 +12°C° 0 mm 3 mps 737 mmHg 53%
11:00 +13°C° 0 mm 3 mps 737 mmHg 48%
12:00 +14°C° 0 mm 3 mps 737 mmHg 47%
13:00 +16°C° 0 mm 3 mps 737 mmHg 45%
14:00 +17°C° 0 mm 3 mps 737 mmHg 44%
15:00 +16°C° 0 mm 2 mps 736 mmHg 48%
16:00 +15°C° 0 mm 2 mps 736 mmHg 52%
17:00 +14°C° 0 mm 2 mps 736 mmHg 57%
18:00 +13°C° 0 mm 2 mps 736 mmHg 57%
19:00 +12°C° 0 mm 1 mps 736 mmHg 58%
20:00 +12°C° 0 mm 1 mps 736 mmHg 58%
21:00 +11°C° 0 mm 1 mps 736 mmHg 58%
22:00 +11°C° 0 mm 1 mps 736 mmHg 58%
23:00 +11°C° 0 mm 1 mps 735 mmHg 57%

23 October, Friday

Time Temperature Precipitation Wind Pressure Humidity
00:00 +10°C° 0 mm 1 mps 735 mmHg 57%
01:00 +10°C° 0 mm 1 mps 735 mmHg 57%
02:00 +10°C° 0 mm 1 mps 735 mmHg 56%
03:00 +10°C° 0 mm 1 mps 734 mmHg 58%
04:00 +9°C° 0 mm 1 mps 734 mmHg 59%
05:00 +9°C° 0 mm 1 mps 734 mmHg 61%
06:00 +9°C° 0 mm 1 mps 734 mmHg 62%
07:00 +9°C° 0 mm 1 mps 733 mmHg 64%
08:00 +10°C° 0 mm 1 mps 733 mmHg 65%
09:00 +11°C° 0 mm 1 mps 733 mmHg 62%
10:00 +13°C° 0 mm 1 mps 733 mmHg 59%
11:00 +15°C° 0 mm 2 mps 733 mmHg 56%
12:00 +15°C° 0 mm 2 mps 733 mmHg 56%
13:00 +16°C° 0 mm 2 mps 732 mmHg 56%
14:00 +17°C° 0 mm 2 mps 732 mmHg 56%
15:00 +16°C° 0 mm 2 mps 732 mmHg 61%
16:00 +15°C° 0 mm 1 mps 732 mmHg 65%
17:00 +14°C° 0 mm 1 mps 732 mmHg 70%
18:00 +14°C° 0 mm 2 mps 732 mmHg 70%
19:00 +12°C° 0 mm 3 mps 732 mmHg 70%
20:00 +12°C° 0 mm 4 mps 732 mmHg 70%
21:00 +12°C° 0 mm 4 mps 733 mmHg 73%
22:00 +11°C° 0 mm 4 mps 733 mmHg 75%
23:00 +11°C° 0 mm 4 mps 733 mmHg 78%

24 October, Saturday

Time Temperature Precipitation Wind Pressure Humidity
00:00 +11°C° 0 mm 4 mps 733 mmHg 79%
01:00 +11°C° 0 mm 4 mps 733 mmHg 81%
02:00 +11°C° 0 mm 4 mps 733 mmHg 83%
03:00 +10°C° 0 mm 3 mps 733 mmHg 85%
04:00 +10°C° 0 mm 3 mps 733 mmHg 86%
05:00 +10°C° 0 mm 2 mps 733 mmHg 88%
06:00 +10°C° 0 mm 2 mps 734 mmHg 87%
07:00 +12°C° 0 mm 2 mps 734 mmHg 86%
08:00 +12°C° 0 mm 2 mps 734 mmHg 86%
09:00 +12°C° 0 mm 3 mps 734 mmHg 81%
10:00 +12°C° 0 mm 3 mps 734 mmHg 77%
11:00 +13°C° 0 mm 4 mps 734 mmHg 73%
12:00 +14°C° 0 mm 4 mps 734 mmHg 69%
13:00 +14°C° 0 mm 4 mps 733 mmHg 65%
14:00 +15°C° 0 mm 5 mps 733 mmHg 62%
15:00 +14°C° 0.1 mm 5 mps 733 mmHg 65%
16:00 +13°C° 0.1 mm 4 mps 733 mmHg 69%
17:00 +12°C° 0.1 mm 4 mps 733 mmHg 73%
18:00 +11°C° 0.1 mm 4 mps 733 mmHg 73%
19:00 +10°C° 0.1 mm 5 mps 734 mmHg 74%
20:00 +9°C° 0.1 mm 5 mps 734 mmHg 74%
21:00 +8°C° 0 mm 5 mps 734 mmHg 76%
22:00 +8°C° 0 mm 5 mps 735 mmHg 78%
23:00 +7°C° 0 mm 5 mps 735 mmHg 80%

25 October, Sunday

Time Temperature Precipitation Wind Pressure Humidity
00:00 +6°C° 0 mm 5 mps 735 mmHg 79%
01:00 +6°C° 0 mm 5 mps 735 mmHg 79%
02:00 +6°C° 0 mm 5 mps 735 mmHg 79%
03:00 +5°C° 0 mm 5 mps 736 mmHg 80%
04:00 +5°C° 0 mm 5 mps 736 mmHg 82%
05:00 +5°C° 0 mm 5 mps 736 mmHg 83%
06:00 +5°C° 0 mm 5 mps 736 mmHg 83%
07:00 +5°C° 0 mm 5 mps 737 mmHg 83%
08:00 +5°C° 0 mm 5 mps 737 mmHg 83%
09:00 +6°C° 0 mm 5 mps 737 mmHg 78%
10:00 +7°C° 0 mm 5 mps 737 mmHg 73%
11:00 +8°C° 0 mm 6 mps 738 mmHg 67%
12:00 +9°C° 0 mm 5 mps 738 mmHg 65%
13:00 +9°C° 0 mm 5 mps 737 mmHg 62%
14:00 +10°C° 0 mm 5 mps 737 mmHg 60%
15:00 +10°C° 0 mm 4 mps 737 mmHg 64%
16:00 +9°C° 0 mm 3 mps 737 mmHg 67%
17:00 +8°C° 0 mm 2 mps 737 mmHg 71%
18:00 +7°C° 0 mm 2 mps 737 mmHg 74%
19:00 +7°C° 0 mm 2 mps 738 mmHg 78%
20:00 +7°C° 0 mm 1 mps 738 mmHg 81%
21:00 +7°C° 0 mm 1 mps 738 mmHg 82%
22:00 +6°C° 0 mm 1 mps 738 mmHg 84%
23:00 +6°C° 0 mm 1 mps 738 mmHg 86%

26 October, Monday

Time Temperature Precipitation Wind Pressure Humidity
00:00 +6°C° 0 mm 1 mps 738 mmHg 86%
01:00 +5°C° 0 mm 0 mps 738 mmHg 87%
02:00 +5°C° 0 mm 0 mps 738 mmHg 88%
03:00 +4°C° 0 mm 0 mps 738 mmHg 88%
04:00 +4°C° 0 mm 0 mps 738 mmHg 88%
05:00 +4°C° 0 mm 0 mps 738 mmHg 89%
06:00 +5°C° 0 mm 1 mps 738 mmHg 88%
07:00 +5°C° 0 mm 1 mps 738 mmHg 87%
08:00 +6°C° 0 mm 1 mps 738 mmHg 87%
09:00 +6°C° 0 mm 2 mps 738 mmHg 79%
10:00 +8°C° 0 mm 2 mps 738 mmHg 72%
11:00 +10°C° 0 mm 3 mps 738 mmHg 65%
12:00 +10°C° 0 mm 3 mps 738 mmHg 62%
13:00 +11°C° 0 mm 3 mps 737 mmHg 59%
14:00 +11°C° 0 mm 3 mps 737 mmHg 56%
15:00 +10°C° 0 mm 3 mps 737 mmHg 60%
16:00 +9°C° 0 mm 3 mps 737 mmHg 64%
17:00 +8°C° 0 mm 3 mps 736 mmHg 68%
18:00 +8°C° 0 mm 3 mps 737 mmHg 70%
19:00 +7°C° 0 mm 3 mps 737 mmHg 72%
20:00 +5°C° 0 mm 3 mps 737 mmHg 74%
21:00 +5°C° 0 mm 3 mps 737 mmHg 75%
22:00 +5°C° 0 mm 3 mps 737 mmHg 76%
23:00 +5°C° 0 mm 3 mps 737 mmHg 76%
Show more